Regional Weather Roundup
Issued by NWS Grand Forks, ND

Home | Current Version | Previous Version | Graphics & Text | Print | Product List | Glossary On
Versions: 1 2 3 4 5 6 7 8 9 10 11 12 13 14 15 16 17 18 19 20 21 22 23 24 25 26 27 28 29 30 31 32 33 34 35 36 37 38 39 40 41 42 43 44 45 46 47 48 49 50
939
ASUS43 KFGF 272110
RWRFGF
PRAIRIE TO PINES  WEATHER ROUNDUP
NATIONAL WEATHER SERVICE EASTERN NORTH DAKOTA/GRAND FORKS ND
400 PM CDT MON MAR 27 2017

 **SATELLITE DATA USED TO AUGMENT SKY COVER AT AUTOMATED STATIONS**
 *****  WEATHER ACROSS EASTERN NORTH DAKOTA  *****

CITY           SKY/WX    TMP DP  RH WIND       PRES   REMARKS
GRAND FORKS    CLOUDY    43  40  89 N3        30.00F
GRAND FRKS AFB CLOUDY    42  40  93 CALM      30.00F
DEVILS LAKE    CLOUDY    51  40  65 E7        29.95R
FARGO          FAIR      57  41  55 VRB5      29.96S
WAHPETON ARPT  FAIR      55  36  47 CALM      29.96S
$$

 ***** WEATHER ACROSS CENTRAL AND WESTERN NORTH DAKOTA  *****

CITY           SKY/WX    TMP DP  RH WIND       PRES   REMARKS
BISMARCK       FAIR      65  27  23 SE12      29.90F
MINOT          PTSUNNY   43  38  82 N9        29.95R
JAMESTOWN      FAIR      58  37  45 SE7       29.92S
MINOT AFB      FOG       37  36  95 N12       29.94R VSB 1
GARRISON         N/A     60  38  43 NE5       29.89F
WILLISTON      FAIR      59  29  31 E12       29.89F
DICKINSON      FAIR      58  25  28 SE8       29.84F
HETTINGER      FAIR      60  27  28 SE9       29.87F
$$

 *****  OTHER AIRPORT OBSERVATIONS IN OUR AREA  *****

CITY           SKY/WX    TMP DP  RH WIND       PRES   REMARKS
WALHALLA       NOT AVBL
GRAFTON AIRPOR CLOUDY    39  39 100 E5        30.03S
VALLEY CITY AR FAIR      55  41  58 VRB6      29.96S
CANDO          NOT AVBL
CAVALIER APRT  CLOUDY    37  37 100 CALM      30.02S FOG
GWINNER        CLEAR     57  36  44 MISG      29.94S
SHEYENNE NWR     N/A     58  37  46 E7        29.95S
ROLLA          FOG       34  34 100 NE10      29.98R VSB<1/4
 ***** THE ABOVE OBSERVATIONS ARE NON NWS ARE NOT QUALITY
       CONTROLLED AND MAY MIS-REPORT RAIN FOR SNOW...
$$

  *****  WEATHER ACROSS NORTHERN MINNESOTA  *****

CITY           SKY/WX    TMP DP  RH WIND       PRES   REMARKS
FLAG ISLAND    FAIR      41  30  65 CALM      30.00R
WARROAD        FAIR      48  37  66 NE6       30.00S
ROSEAU         FAIR      52  41  66 CALM      29.98F
HALLOCK        PTSUNNY   37  36  93 CALM      30.01F
THF RVR FALLS    N/A    N/A N/A N/A CALM      29.99R
BAUDETTE       FAIR      53  33  46 CALM      29.96F
WASKISH        FAIR      48  36  61 W8        29.96F
CROOKSTON      PTSUNNY   45  43  93 W9        30.00S
GREENBUSH NDAW   N/A     46  41  81 NW7         N/A
$$
  *****  WEATHER ACROSS CENTRAL AND WEST MINNESOTA  *****

CITY           SKY/WX    TMP DP  RH WIND       PRES   REMARKS
FOSSTON        FAIR      61  37  41 CALM      29.96F
BEMIDJI        FAIR      56  29  36 E7        29.95F
PARK RAPIDS    FAIR      58  31  35 N3        29.94S
ELBOW LAKE     CLOUDY    56  36  47 CALM      29.96F
WADENA         FAIR      57  36  44 SE5       29.95S
DETROIT LAKES  FAIR      55  34  44 W3        29.96F
MOORHEAD       FAIR      55  43  62 SW3       29.97F
FERGUS FALLS   FAIR      57  39  51 SW5       29.98S
MORRIS MN      FAIR      59  34  38 E5        29.94F
STAPLES        PTSUNNY   55  34  44 S7        29.95S
$$
  *****  WEATHER ELSEWHERE ACROSS MINNESOTA  *****

CITY           SKY/WX    TMP DP  RH WIND       PRES   REMARKS
DULUTH         FAIR      51  34  52 CALM      29.95F
INTRNTL FALLS  FAIR      53  27  36 NE7       29.97S
ELY            FAIR      52  25  35 NE3       29.96S
CLOQUET        FAIR      52  32  46 CALM      29.95F
WHEATON        FAIR      57  34  41 E3        29.96F
BRAINERD       CLOUDY    53  33  46 CALM      29.96R
HIBBING        FAIR      53  28  38 N7        29.95S
ALEXANDRIA     CLOUDY    54  34  46 CALM      29.96S
SAINT CLOUD    CLOUDY    55  36  48 N7        29.96R
MINNEAPOLIS    PTSUNNY   59  31  34 NE8       29.94F
$$

  *****  WEATHER ACROSS SOUTH DAKOTA  *****

CITY           SKY/WX    TMP DP  RH WIND       PRES   REMARKS
SIOUX FALLS    FAIR      59  37  44 CALM      29.93F
BROOKINGS      FAIR      57  35  43 SE6       29.92F
WATERTOWN      PTSUNNY   57  35  43 N5        29.92F
HURON          CLOUDY    58  34  40 E5        29.92F
SISSETON         N/A     57  39  51 SE5       29.94S
ABERDEEN       FAIR      61  31  32 NE6       29.92F
MITCHELL       FAIR      59  33  37 S8        29.93F
PIERRE         FAIR      59  31  34 S9        29.88F
MOBRIDGE       PTSUNNY   61  34  36 S9        29.87F
RAPID CITY     FAIR      58  38  47 MISG      29.83F
$$

  *****  SOME WEATHER IN NEARBY STATES *****

CITY           SKY/WX    TMP DP  RH WIND       PRES   REMARKS
GLASGOW MT     CLOUDY    50  34  54 NW8       29.86S
GREAT FALLS MT CLOUDY    53  27  36 W10       29.84R
CHEYENNE WY    CLOUDY    56  26  31 S14       29.85F
SCOTTSBLUFF NE FAIR      64  23  21 W5        29.80F
OMAHA NE       CLOUDY    51  40  65 NE6       29.95F
DES MOINES IA  CLOUDY    51  42  71 N6        29.95S
DAVENPORT IA   CLOUDY    52  46  80 N6        29.91S
CHICAGO IL     LGT RAIN  49  42  77 NE7       29.91R
EAU CLAIRE WI  CLOUDY    46  37  71 E6        29.95F
LA CROSSE WI   CLOUDY    49  41  74 NW8       29.95R
$$

  *****  SOME NATIONAL WEATHER *****

CITY           SKY/WX    TMP DP  RH WIND       PRES   REMARKS
LA GUARDIA NY  PTSUNNY   47  42  83 NE9       29.99F
RALEIGH NC     PTSUNNY   78  58  49 SW10      29.99F
ATLANTA GA     PTSUNNY   76  56  49 SW8       29.98F
NEW ORLEANS LA FAIR      81  65  58 S15G23    29.95F
OKLAHOMA CITY  FAIR      67  47  48 N12       29.91F
ALBUQUERQUE NM PTSUNNY   65  18  16 SW14G20   29.87F
SALT LAKE CITY LGT RAIN  42  40  92 S6        29.86F
LOS ANGELES CA FAIR      66  53  63 W21       29.98F
BOISE ID       FAIR      54  34  46 NW21      30.01F
SEATTLE WA     PTSUNNY   51  45  79 SW18G24   30.14R
$$

*** WEATHER ACROSS MANITOBA...SASKATCHEWAN AND ONTARIO ***
                ***ONTARIO***

CITY           SKY/WX    TMP DP  RH WIND       PRES   REMARKS
GERALDTON      PTSUNNY   48  25  40 N9        29.93R
THUNDER BAY    PTSUNNY   54  34  47 S3        29.95S
SIOUX LOOKOUT  CLOUDY    48  27  43 W8        29.97S
TORONTO        CLOUDY    57  52  82 W12G18    29.85S
BIG TROUT LK   FLURRIES  25  14  63 NW13G20   30.06S WCI  13
PICKLE LAKE    PTSUNNY   43  19  39 W6        29.98R
DRYDEN         MOSUNNY   52  27  37 CALM      29.97S
KENORA         PTSUNNY   48  27  43 N5        29.99S
$$
                *** MANITOBA***

CITY           SKY/WX    TMP DP  RH WIND       PRES   REMARKS
BRANDON        PTSUNNY   41  32  70 E17       30.01S
DAUPHIN        CLOUDY    36  30  80 NE9       30.10S
ISLAND LAKE    PTSUNNY   27  18  69 NW10G20   30.14S WCI  17
PILOT MOUND      N/A     37  36  93 NE7         N/A
THE PAS        MOSUNNY   30  18  59 NE3       30.17F
THOMPSON       PTSUNNY   23  16  74 NE7       30.22R WCI  15
WINNIPEG       PTSUNNY   39  30  70 NE13      30.04S
LYNN LAKE      SUNNY     27   5  39 SE7       30.21S WCI  19
CHURCHILL      CRYSTALS  10   7  85 N13       30.29S WCI  -5
GILLAM         FLURRIES  23  12  63 N12       30.21R WCI  12
$$
                ***SASKATCHEWAN***

CITY           SKY/WX    TMP DP  RH WIND       PRES   REMARKS
ESTEVAN        CLOUDY    41  37  87 E12       29.97S
KINDERSLEY     CLOUDY    41  36  81 E13       29.90S
LLOYDMINSTER   CLOUDY    34  32  93 SE10      29.93S
PRINCE ALBERT  CLOUDY    39  25  56 SE10      30.06R
REGINA         CLOUDY    43  36  75 E12       29.97S
YORKTON        CLOUDY    37  32  81 E12       30.03R
N. BATTLEFORD  CLOUDY    36  36 100 E20       29.99S
LA RONGE       MOSUNNY   34  25  69 NE13      30.11F WCI  25
SASKATOON      NOT AVBL
SWIFT CURRENT  MOSUNNY   52  25  35 SE12G18   29.88S
$$
NOTE: THESE ARE AUTOMATED STATIONS WITH LIMITED QUALITY CONTROL
      "FAIR" INDICATES FEW OR NO CLOUDS BELOW 12,000 FEET WITH NO
      SIGNIFICANT WEATHER AND/OR OBSTRUCTIONS TO VISIBILITY.
      SKY/WX - SKY CONDITION AND SIGNIFICANT WEATHER.
      TMP - AIR TEMPERATURE.    DP   - DEWPOINT TEMPERATURE.
      RH  - RELATIVE HUMIDITY.  PRES - PRESSURE.
      HX  - HEAT INDEX.         WCI  - WIND CHILL INDEX.
$




USA.gov is the U.S. government's official web portal to all federal, state and local government web resources and services.